RYR8MB LEBL-LEMH

Flight info

Callsign RYR8MB
Flight time 0h 32m
Altitude 19000
Route DUNES Q700 SARGO
Aircraft A320/M-SDE3FGHIRWY/LB1

Departure

Time 2026-04-30 21:13
Airport Josep Tarradellas Barcelona-El Prat Airport (LEBL)

Arrival

Time 2026-04-30 21:46
Airport Menorca Airport (LEMH)
Time Latitude Longitude Altitude Speed Heading
2026-04-30 20:48 41.30223 2.07981 19 ft 0 kts 15°
2026-04-30 21:02 41.30223 2.07980 19 ft 1 kts 16°
2026-04-30 21:02 41.30209 2.07975 19 ft 2 kts 15°
2026-04-30 21:02 41.30195 2.07971 19 ft 2 kts 347°
2026-04-30 21:02 41.30183 2.07982 19 ft 2 kts 295°
2026-04-30 21:03 41.30176 2.07999 19 ft 2 kts 308°
2026-04-30 21:03 41.30167 2.08015 19 ft 2 kts 303°
2026-04-30 21:03 41.30161 2.08026 19 ft 1 kts 306°
2026-04-30 21:03 41.30159 2.08037 19 ft 0 kts 251°
2026-04-30 21:04 41.30162 2.08044 19 ft 1 kts 243°
2026-04-30 21:04 41.30162 2.08046 19 ft 0 kts 244°
2026-04-30 21:06 41.30159 2.08036 19 ft 2 kts 244°
2026-04-30 21:06 41.30137 2.07973 19 ft 9 kts 237°
2026-04-30 21:07 41.30078 2.07971 19 ft 9 kts 174°
2026-04-30 21:07 41.30013 2.07994 19 ft 10 kts 150°
2026-04-30 21:07 41.29951 2.08046 19 ft 10 kts 150°
2026-04-30 21:07 41.29879 2.08087 19 ft 11 kts 161°
2026-04-30 21:08 41.29800 2.08125 19 ft 12 kts 158°
2026-04-30 21:08 41.29718 2.08171 19 ft 13 kts 155°
2026-04-30 21:08 41.29633 2.08222 19 ft 14 kts 156°
2026-04-30 21:08 41.29528 2.08285 19 ft 18 kts 155°
2026-04-30 21:09 41.29399 2.08363 19 ft 20 kts 155°
2026-04-30 21:09 41.29271 2.08440 19 ft 17 kts 156°
2026-04-30 21:09 41.29153 2.08425 19 ft 17 kts 199°
2026-04-30 21:09 41.29034 2.08373 19 ft 18 kts 199°
2026-04-30 21:10 41.28934 2.08328 19 ft 14 kts 199°
2026-04-30 21:10 41.28838 2.08284 19 ft 14 kts 198°
2026-04-30 21:10 41.28738 2.08236 19 ft 15 kts 198°
2026-04-30 21:10 41.28661 2.08149 19 ft 15 kts 246°
2026-04-30 21:11 41.28616 2.08018 19 ft 16 kts 245°
2026-04-30 21:11 41.28571 2.07878 19 ft 16 kts 247°
2026-04-30 21:11 41.28522 2.07736 19 ft 17 kts 245°
2026-04-30 21:11 41.28480 2.07642 19 ft 10 kts 213°
2026-04-30 21:12 41.28423 2.07671 19 ft 10 kts 102°
2026-04-30 21:12 41.28416 2.07775 19 ft 11 kts 92°
2026-04-30 21:12 41.28414 2.07884 19 ft 12 kts 96°
2026-04-30 21:12 41.28419 2.07987 19 ft 10 kts 64°
2026-04-30 21:13 41.28463 2.08107 19 ft 34 kts 66°
2026-04-30 21:13 41.28670 2.08712 19 ft 106 kts 67°
2026-04-30 21:13 41.29058 2.09845 65 ft 156 kts 65°
2026-04-30 21:13 41.29508 2.11173 672 ft 159 kts 71°
2026-04-30 21:14 41.29683 2.12581 1407 ft 159 kts 91°
2026-04-30 21:14 41.29525 2.14049 2027 ft 169 kts 98°
2026-04-30 21:14 41.29321 2.15661 2504 ft 188 kts 98°
2026-04-30 21:14 41.29110 2.17465 2929 ft 210 kts 98°
2026-04-30 21:15 41.28869 2.19444 3661 ft 220 kts 98°
2026-04-30 21:15 41.28632 2.21462 4453 ft 227 kts 98°
2026-04-30 21:15 41.28396 2.23504 5329 ft 227 kts 98°
2026-04-30 21:15 41.28333 2.24052 5533 ft 228 kts 98°
2026-04-30 21:16 41.28157 2.25580 6106 ft 231 kts 98°
2026-04-30 21:16 41.27963 2.27254 6738 ft 235 kts 98°
2026-04-30 21:16 41.27707 2.29409 7541 ft 240 kts 101°
2026-04-30 21:16 41.27257 2.31548 8332 ft 245 kts 111°
2026-04-30 21:17 41.26550 2.33667 8897 ft 260 kts 115°
2026-04-30 21:17 41.25723 2.35921 9391 ft 278 kts 116°
2026-04-30 21:17 41.24854 2.38263 9879 ft 292 kts 116°
2026-04-30 21:17 41.23938 2.40744 10515 ft 302 kts 116°
2026-04-30 21:18 41.22998 2.43303 11047 ft 317 kts 116°
2026-04-30 21:18 41.22010 2.46004 11458 ft 335 kts 116°
2026-04-30 21:18 41.20968 2.48858 11826 ft 353 kts 116°
2026-04-30 21:18 41.19881 2.51837 12144 ft 371 kts 115°
2026-04-30 21:19 41.18735 2.54972 12613 ft 383 kts 115°
2026-04-30 21:19 41.17569 2.58161 13308 ft 387 kts 115°
2026-04-30 21:19 41.16375 2.61420 14026 ft 391 kts 116°
2026-04-30 21:19 41.15161 2.64607 14690 ft 395 kts 118°
2026-04-30 21:20 41.13755 2.67773 15354 ft 399 kts 123°
2026-04-30 21:20 41.12181 2.70805 16009 ft 402 kts 127°
2026-04-30 21:20 41.10493 2.73781 16648 ft 406 kts 128°
2026-04-30 21:20 41.08778 2.76773 17254 ft 410 kts 128°
2026-04-30 21:21 41.07045 2.79791 17859 ft 413 kts 128°
2026-04-30 21:21 41.05306 2.82823 18455 ft 416 kts 128°
2026-04-30 21:21 41.01767 2.88991 19107 ft 423 kts 128°
2026-04-30 21:22 40.99991 2.92083 19111 ft 423 kts 128°
2026-04-30 21:22 40.94621 3.01421 19116 ft 423 kts 128°
2026-04-30 21:23 40.92849 3.04498 19117 ft 424 kts 128°
2026-04-30 21:23 40.91056 3.07606 19117 ft 424 kts 128°
2026-04-30 21:23 40.87474 3.13825 19118 ft 424 kts 126°
2026-04-30 21:24 40.85795 3.17076 19118 ft 425 kts 123°
2026-04-30 21:24 40.84274 3.20426 19121 ft 425 kts 120°
2026-04-30 21:24 40.82821 3.23782 19118 ft 425 kts 120°
2026-04-30 21:24 40.81353 3.27193 19118 ft 426 kts 120°
2026-04-30 21:25 40.78425 3.33984 19116 ft 426 kts 120°
2026-04-30 21:25 40.76967 3.37357 19116 ft 427 kts 120°
2026-04-30 21:25 40.75491 3.40765 19117 ft 426 kts 120°
2026-04-30 21:26 40.72549 3.47546 19116 ft 427 kts 120°
2026-04-30 21:26 40.71088 3.50910 19117 ft 427 kts 120°
2026-04-30 21:27 40.68137 3.57690 19117 ft 428 kts 120°
2026-04-30 21:27 40.66658 3.61082 19117 ft 427 kts 120°
2026-04-30 21:27 40.65162 3.64509 19117 ft 428 kts 120°
2026-04-30 21:28 40.62190 3.71334 19118 ft 428 kts 121°
2026-04-30 21:28 40.60710 3.74726 19119 ft 428 kts 121°
2026-04-30 21:28 40.57737 3.81520 19118 ft 429 kts 121°
2026-04-30 21:29 40.56237 3.84940 19118 ft 429 kts 121°
2026-04-30 21:29 40.51762 3.95073 18582 ft 426 kts 123°
2026-04-30 21:30 40.47380 4.00072 17824 ft 415 kts 159°
2026-04-30 21:31 40.39191 4.03028 16279 ft 403 kts 167°
2026-04-30 21:31 40.33816 4.04886 15213 ft 396 kts 167°
2026-04-30 21:32 40.28519 4.06750 14150 ft 390 kts 167°
2026-04-30 21:32 40.25874 4.07675 13638 ft 386 kts 168°
2026-04-30 21:32 40.23260 4.07934 13230 ft 373 kts 190°
2026-04-30 21:32 40.20829 4.07053 12820 ft 363 kts 201°
2026-04-30 21:33 40.18484 4.05921 12390 ft 357 kts 202°
2026-04-30 21:33 40.13867 4.03767 11557 ft 346 kts 200°
2026-04-30 21:33 40.11599 4.02779 11150 ft 341 kts 199°
2026-04-30 21:34 40.09362 4.01831 10786 ft 334 kts 199°
2026-04-30 21:34 40.05023 4.00029 10148 ft 321 kts 198°
2026-04-30 21:34 40.02921 3.99165 9800 ft 316 kts 198°
2026-04-30 21:35 40.00832 3.98308 9448 ft 311 kts 198°
2026-04-30 21:35 39.98789 3.97472 9110 ft 306 kts 198°
2026-04-30 21:35 39.96775 3.96648 8764 ft 302 kts 198°
2026-04-30 21:35 39.94763 3.95825 8430 ft 297 kts 198°
2026-04-30 21:36 39.92798 3.95023 8112 ft 292 kts 198°
2026-04-30 21:36 39.90886 3.94241 7771 ft 289 kts 198°
2026-04-30 21:37 39.85045 3.93264 6708 ft 279 kts 175°
2026-04-30 21:37 39.83121 3.93569 6398 ft 275 kts 169°
2026-04-30 21:37 39.81259 3.94074 6094 ft 271 kts 165°
2026-04-30 21:37 39.79480 3.94760 5798 ft 267 kts 160°
2026-04-30 21:38 39.77747 3.95637 5494 ft 263 kts 155°
2026-04-30 21:38 39.76125 3.96664 5210 ft 259 kts 150°
2026-04-30 21:38 39.74573 3.97861 4919 ft 256 kts 146°
2026-04-30 21:38 39.73132 3.99189 4643 ft 252 kts 141°
2026-04-30 21:39 39.71785 4.00657 4360 ft 249 kts 136°
2026-04-30 21:39 39.70566 4.02215 4083 ft 246 kts 132°
2026-04-30 21:39 39.69450 4.03885 3807 ft 244 kts 128°
2026-04-30 21:39 39.68442 4.05651 3524 ft 237 kts 123°
2026-04-30 21:40 39.67587 4.07417 3266 ft 231 kts 119°
2026-04-30 21:40 39.66958 4.08936 3070 ft 228 kts 116°
2026-04-30 21:40 39.66302 4.10806 2856 ft 220 kts 111°
2026-04-30 21:40 39.65785 4.12609 2823 ft 205 kts 108°
2026-04-30 21:41 39.65390 4.14324 2794 ft 198 kts 104°
2026-04-30 21:41 39.65165 4.16097 2721 ft 198 kts 83°
2026-04-30 21:41 39.65762 4.17662 2645 ft 199 kts 40°
2026-04-30 21:41 39.67049 4.18311 2569 ft 205 kts
2026-04-30 21:42 39.68494 4.18443 2446 ft 208 kts
2026-04-30 21:42 39.69923 4.18577 2305 ft 202 kts
2026-04-30 21:42 39.71320 4.18787 2094 ft 203 kts 11°
2026-04-30 21:42 39.72701 4.19053 1839 ft 200 kts 12°
2026-04-30 21:43 39.74019 4.19326 1865 ft 182 kts 13°
2026-04-30 21:43 39.75218 4.19576 1800 ft 165 kts 13°
2026-04-30 21:43 39.76287 4.19797 1790 ft 149 kts 13°
2026-04-30 21:43 39.77325 4.20015 1772 ft 150 kts 14°
2026-04-30 21:44 39.78348 4.20229 1605 ft 149 kts 13°
2026-04-30 21:44 39.79342 4.20434 1416 ft 147 kts 13°
2026-04-30 21:44 39.80302 4.20630 1211 ft 134 kts 13°
2026-04-30 21:44 39.81209 4.20819 1030 ft 131 kts 13°
2026-04-30 21:45 39.82096 4.21004 897 ft 130 kts 12°
2026-04-30 21:45 39.82997 4.21187 711 ft 129 kts 12°
2026-04-30 21:45 39.83882 4.21364 544 ft 128 kts 12°
2026-04-30 21:45 39.84763 4.21550 377 ft 127 kts 12°
2026-04-30 21:46 39.85625 4.21732 286 ft 117 kts 12°
2026-04-30 21:46 39.86280 4.21870 295 ft 67 kts
2026-04-30 21:46 39.86595 4.21933 297 ft 32 kts
2026-04-30 21:46 39.86782 4.22011 298 ft 22 kts 31°
2026-04-30 21:47 39.86889 4.22112 298 ft 16 kts 43°
2026-04-30 21:47 39.86933 4.22206 297 ft 10 kts 113°
2026-04-30 21:47 39.86857 4.22228 295 ft 13 kts 187°
2026-04-30 21:47 39.86752 4.22204 290 ft 17 kts 188°
2026-04-30 21:48 39.86644 4.22185 284 ft 9 kts 189°
2026-04-30 21:48 39.86565 4.22176 281 ft 10 kts 162°
2026-04-30 21:48 39.86539 4.22267 274 ft 9 kts 98°
2026-04-30 21:48 39.86556 4.22335 273 ft 7 kts 32°
2026-04-30 21:49 39.86581 4.22363 274 ft 4 kts 82°
2026-04-30 21:49 39.86579 4.22391 275 ft 2 kts 100°
2026-04-30 21:49 39.86575 4.22422 276 ft 2 kts 101°
2026-04-30 21:49 39.86574 4.22427 276 ft 0 kts 100°